Dewpoint
22 22 22 22 22 21 20 21 21 21 20 20 20 19 20 21 21 21 22 22 21 20 19 20 21 22 24 28 30 31 31 31 31 31 31 31 31 31 31 32 33 33 34 35 35 35 35 35 35 34 34 34 34 35 35 35 35 36 36 37 37 37 37 37 37 37 38 38 38 39 39 39 40 40 40 40 40 40 40 41 42 43 43 44 44 44
23 22 22 22 22 21 21 22 21 20 19 19 18 19 19 19 19 19 19 20 20 20 21 22 22 23 23 26 29 30 30 30 30 30 30 30 30 30 31 31 32 33 33 33 33 33 33 32 32 32 32 32 33 33 33 34 34 34 34 35 35 35 36 36 36 37 37 38 38 38 38 38 38 38 39 39 39 40 40 40 41 41 42 42 43 44
22 22 21 22 22 22 21 21 20 19 19 18 18 18 18 18 18 18 18 20 21 22 23 24 24 23 22 24 26 27 28 28 28 28 29 29 29 30 30 31 31 31 31 31 31 31 31 31 31 31 31 32 32 32 33 33 33 33 34 34 35 35 35 36 36 37 37 38 37 37 37 37 37 37 38 39 40 40 41 41 41 41 41 41 42 43
22 22 22 22 22 21 20 19 19 19 19 19 19 19 19 18 19 20 21 22 24 25 25 25 23 21 19 19 22 25 26 27 27 28 28 28 28 29 29 29 30 30 30 30 30 30 30 30 31 31 31 31 32 32 32 32 33 33 33 34 34 35 35 36 36 36 37 37 36 36 36 36 36 37 38 40 40 41 41 41 41 41 41 41 42 43
23 23 22 21 19 18 18 18 19 19 19 19 19 18 19 20 21 23 25 26 26 25 23 21 19 17 16 16 19 23 26 26 27 27 27 28 28 28 28 28 29 29 29 29 29 30 30 30 31 31 31 32 32 32 32 32 32 32 32 33 33 34 35 35 35 35 36 36 35 35 35 35 36 36 38 39 40 41 41 41 41 41 41 41 42 42
23 22 21 19 18 17 18 19 19 20 19 19 19 19 20 23 25 26 26 25 24 22 19 17 16 15 14 15 18 22 25 26 26 26 26 27 27 27 28 28 28 28 29 29 29 29 30 30 30 31 31 32 32 32 32 32 32 32 32 32 33 33 34 34 35 35 35 35 35 35 35 35 35 36 36 38 39 40 40 40 40 41 41 41 41 41
21 20 19 19 19 19 20 20 20 20 19 19 20 22 24 26 26 26 23 21 20 18 17 17 16 15 13 15 17 21 22 23 24 25 26 26 26 27 27 27 28 28 28 28 29 29 29 30 30 31 31 32 32 32 32 32 32 32 32 32 32 33 33 34 34 34 34 34 34 34 34 34 35 35 35 36 37 38 39 39 40 40 40 40 40 40
19 19 19 20 21 21 21 21 21 21 21 22 23 25 26 26 24 22 20 19 18 17 16 15 15 14 12 12 14 16 16 17 18 19 21 22 24 26 26 27 27 28 28 28 29 29 29 30 31 31 31 31 32 32 32 32 32 32 32 32 32 32 32 33 33 33 32 32 32 33 33 34 34 35 35 36 37 37 38 38 38 38 38 39 39 39
19 19 20 22 23 23 22 21 21 22 23 25 26 26 25 22 20 18 18 18 17 16 15 14 13 13 12 12 12 13 15 16 16 16 17 18 19 22 24 26 27 27 28 28 29 29 30 30 31 31 31 31 32 32 32 32 31 31 31 31 31 31 31 31 31 31 31 32 32 33 33 34 35 35 36 36 37 37 37 38 37 37 37 37 38 39
21 22 23 25 25 23 21 20 20 23 27 28 28 26 23 20 18 17 16 16 16 16 15 14 13 12 12 12 12 13 15 17 19 21 22 22 22 23 25 25 26 26 28 28 29 29 30 30 30 31 31 31 31 31 31 31 30 30 30 30 30 30 30 31 31 31 31 32 33 33 34 35 35 35 36 36 37 37 37 37 37 37 37 38 38 39
23 25 26 25 23 21 20 20 22 25 28 27 26 23 21 19 17 17 16 15 14 14 14 13 13 13 12 12 12 13 15 15 17 20 23 24 25 26 26 26 26 26 28 28 29 29 30 30 30 30 31 31 30 30 29 29 28 28 28 28 29 29 29 30 30 31 31 32 33 33 34 35 35 35 36 36 36 36 36 36 36 37 37 38 39 40
26 26 24 21 19 19 20 23 26 27 26 23 21 19 18 17 17 17 15 14 13 13 13 13 13 13 13 13 13 14 15 15 16 17 19 20 22 23 23 24 25 26 27 28 29 29 30 30 30 30 29 29 28 28 28 27 27 27 28 28 28 29 29 30 30 31 31 32 32 33 34 34 35 35 35 35 35 35 35 35 35 36 38 39 39 40
25 23 21 19 20 21 23 25 24 23 21 19 17 17 16 16 16 16 15 14 13 13 12 12 13 14 15 15 15 16 16 16 17 17 18 18 19 20 22 22 23 24 25 25 26 26 27 28 28 28 27 27 27 27 27 27 27 27 27 28 28 29 29 29 30 31 31 31 32 33 34 34 34 35 35 35 35 35 35 35 35 37 38 39 39 40
22 21 20 22 23 24 24 23 21 19 17 17 16 16 16 16 16 15 15 14 13 13 13 13 14 14 15 16 17 18 17 18 18 19 19 19 20 21 21 22 22 22 21 20 21 21 24 24 24 24 26 26 26 26 26 26 26 27 27 28 28 29 29 30 30 31 31 31 32 32 33 33 34 34 34 35 35 35 35 36 37 37 38 39 39 39
22 22 23 24 24 23 21 20 18 17 17 16 16 16 16 16 15 14 14 13 13 14 15 15 16 16 17 17 18 19 19 19 19 19 19 19 20 20 20 19 19 18 18 18 18 20 22 22 21 21 22 23 23 24 25 25 26 27 27 28 28 29 29 30 30 31 31 31 32 32 33 34 35 35 36 36 36 36 37 37 37 38 38 38 38 38
25 25 25 23 21 19 18 17 17 17 16 16 16 16 15 15 14 14 14 14 15 16 17 17 17 18 18 18 18 18 18 17 17 17 17 17 18 18 18 18 17 17 17 18 19 19 20 19 19 19 20 22 23 25 25 26 26 27 27 28 28 29 29 30 30 31 31 32 33 34 34 35 36 36 36 36 36 37 37 37 37 37 37 37 37 37
26 24 22 20 18 17 17 16 16 16 16 16 15 15 15 15 15 15 16 16 17 18 19 19 19 19 17 17 17 17 17 17 17 17 17 17 17 17 18 18 17 18 19 20 20 20 19 18 17 18 18 22 24 25 25 26 26 27 27 28 28 28 29 30 30 31 32 33 34 35 35 35 35 35 35 35 35 35 35 35 35 35 36 36 35 35
23 21 19 17 17 16 15 15 16 15 15 15 15 15 16 16 17 17 18 19 20 21 21 21 20 18 16 15 14 15 17 17 17 17 17 17 17 17 17 18 18 19 20 19 18 17 17 17 16 17 19 23 25 25 26 26 26 27 27 28 28 29 29 30 31 33 34 34 34 34 33 32 32 32 32 32 33 33 34 34 35 35 35 35 35 35
21 19 17 16 16 15 15 15 15 15 16 16 16 17 17 18 19 20 21 22 22 22 22 20 17 16 15 14 14 15 17 18 18 18 18 17 17 17 18 19 20 20 19 17 16 16 16 16 18 21 23 25 25 26 26 26 27 27 27 28 29 29 30 31 32 33 33 32 31 31 31 31 31 31 31 31 32 32 33 34 34 35 35 35 36 36
19 17 17 16 16 16 16 16 17 17 17 18 19 19 20 21 22 22 23 24 23 21 19 17 17 16 16 16 16 17 18 19 19 19 18 18 18 18 19 20 19 17 16 15 16 16 17 17 18 21 24 25 26 26 26 26 27 27 28 29 30 31 31 31 31 31 31 30 30 30 30 30 31 31 31 32 32 33 33 34 35 35 36 36 36 37
17 17 17 17 17 17 17 17 18 19 21 22 23 23 23 23 24 24 23 22 21 19 18 18 17 17 18 18 19 19 19 20 20 19 19 19 19 19 19 18 17 15 15 15 16 17 19 18 18 20 22 24 25 26 26 26 27 27 28 29 30 31 30 30 29 29 29 29 29 30 30 30 31 31 31 32 32 33 34 34 35 35 35 36 37 37
17 17 17 18 18 18 19 20 22 23 25 26 26 26 25 25 24 22 21 20 20 20 20 20 20 20 20 20 20 20 20 21 21 21 21 20 19 18 17 16 15 15 15 15 17 17 19 18 17 18 22 24 25 26 26 26 27 28 28 29 29 29 29 28 28 28 29 29 29 30 30 30 31 31 31 32 32 33 34 34 35 35 35 35 36 36
18 18 18 19 20 22 23 24 26 27 29 29 28 27 26 25 23 22 22 22 22 22 22 22 22 22 21 21 20 20 21 21 22 22 21 19 17 16 15 15 15 15 15 16 16 16 17 17 17 18 22 24 25 26 26 27 27 28 28 28 28 28 28 28 28 28 29 29 29 30 30 30 31 31 31 32 33 33 34 34 35 35 35 35 35 35
19 20 22 23 25 26 28 28 28 28 28 27 26 25 25 24 24 23 24 24 24 24 23 22 22 21 20 20 19 19 20 20 21 20 19 17 16 15 15 15 15 15 15 15 15 15 15 16 17 18 21 24 26 26 26 26 27 27 27 27 27 27 27 28 28 28 29 29 30 30 31 31 31 31 32 33 33 34 34 35 35 35 35 35 35 35
22 24 26 27 29 30 29 28 27 26 25 24 23 23 24 25 25 25 24 24 23 23 22 21 20 18 18 18 18 17 18 18 18 18 17 17 16 16 15 16 15 15 15 16 16 16 16 17 18 19 21 22 24 26 26 26 26 26 26 27 27 27 28 28 28 29 29 30 30 31 31 31 32 32 33 34 34 35 35 35 35 35 35 35 35 36
28 30 30 30 30 29 28 27 27 26 26 25 24 24 24 24 24 24 23 22 22 21 21 20 18 17 17 17 16 16 17 18 18 18 17 17 16 16 16 16 16 16 16 17 17 18 18 18 18 18 18 19 22 24 25 26 26 26 27 27 27 28 28 28 29 29 29 30 30 30 31 31 31 32 33 33 34 34 34 35 35 35 35 35 35 36
31 31 30 29 27 26 26 26 27 27 27 27 26 26 25 24 23 22 22 21 20 20 19 18 17 17 16 16 16 16 17 17 18 18 18 17 17 16 16 16 17 17 17 16 17 17 18 18 17 17 18 18 20 22 25 26 26 27 27 27 28 28 28 28 28 29 29 29 29 30 30 30 31 31 32 32 33 33 33 34 34 34 34 34 34 35
29 27 26 25 25 25 26 26 26 26 27 27 27 27 26 24 23 22 21 20 20 20 19 18 17 17 16 16 15 16 16 17 17 18 18 18 17 17 16 16 17 17 16 16 17 18 19 18 18 18 18 18 19 21 24 25 26 26 27 27 27 27 27 27 27 28 28 28 28 29 29 30 31 31 31 32 32 33 33 33 34 34 34 34 33 33
25 24 23 24 24 24 25 24 25 26 26 26 27 27 26 24 23 22 22 21 21 20 19 18 17 17 17 16 16 16 16 16 16 17 18 17 17 16 16 16 16 17 16 16 17 17 17 17 17 17 17 18 19 20 21 23 24 25 26 26 26 26 26 26 27 27 27 28 28 29 30 31 31 32 32 32 33 33 33 34 34 34 34 35 34 34
20 20 21 21 22 22 22 22 22 24 25 26 26 27 26 25 24 23 22 22 22 21 19 18 18 17 17 17 16 15 14 14 15 17 18 17 17 16 16 16 17 17 17 17 16 15 14 14 15 16 16 18 18 18 19 20 21 22 22 23 24 25 26 26 27 27 28 28 29 30 31 31 31 32 32 33 33 33 34 34 34 35 35 34 34 34
17 17 17 18 18 19 20 20 21 22 24 25 26 26 25 24 24 23 23 23 22 22 20 19 18 18 18 17 16 14 13 13 16 17 18 18 17 17 17 17 17 17 18 17 16 15 13 13 14 15 17 17 17 18 19 19 19 19 20 21 22 23 25 26 26 27 28 29 29 30 30 31 31 31 31 32 32 33 33 33 33 33 33 32 32 31
17 17 17 17 17 18 19 20 21 21 22 23 24 24 24 24 24 23 23 23 22 22 21 20 19 19 18 17 17 15 14 15 17 19 19 19 19 18 18 18 18 18 18 18 17 16 14 14 14 15 16 17 17 17 18 19 19 19 20 20 21 22 25 26 26 26 27 28 28 28 29 29 29 30 30 31 31 31 32 32 32 32 31 31 30 30
17 17 17 18 18 19 19 20 21 21 21 22 22 22 22 23 23 23 23 23 22 22 22 21 20 19 18 18 17 17 16 17 18 20 22 20 20 19 19 18 18 18 18 18 18 17 16 16 15 16 16 16 17 17 17 18 19 20 20 20 20 21 23 24 25 25 25 25 26 26 27 28 28 29 30 30 31 31 31 32 32 32 31 31 30 30
18 18 18 19 19 19 20 20 21 21 21 20 21 21 21 21 21 22 22 22 22 22 22 22 21 20 19 18 17 17 17 17 19 21 22 22 21 20 19 18 18 18 18 17 17 17 17 16 16 16 16 16 17 17 17 18 19 20 20 20 20 20 21 22 22 22 22 23 23 23 25 26 27 28 29 30 30 31 31 32 32 32 32 31 31 30
18 18 19 19 19 19 20 19 19 19 19 19 19 19 20 20 20 20 21 22 22 22 22 22 22 22 21 20 19 18 17 17 19 22 23 22 22 21 20 19 18 17 18 17 17 17 16 16 16 16 16 16 16 17 17 17 18 19 20 20 20 20 20 21 21 21 22 22 22 22 23 24 25 26 27 28 29 30 31 31 32 32 33 33 32 31
18 18 19 19 19 19 18 18 17 17 17 17 17 18 18 19 19 20 20 21 22 22 22 22 23 23 22 22 21 20 19 19 21 23 24 23 22 22 20 19 18 18 18 18 17 17 17 17 17 17 17 16 16 16 16 17 17 18 19 19 20 20 20 21 21 21 21 22 22 22 22 23 24 25 26 28 30 31 31 32 32 32 33 33 33 33
18 19 19 19 18 18 17 17 16 16 16 16 17 17 18 18 18 19 19 21 22 22 22 23 23 23 24 23 23 22 22 22 22 23 24 24 23 22 21 20 20 20 19 19 18 18 17 17 17 17 17 16 15 15 16 17 17 17 17 18 19 19 20 21 22 22 22 22 22 22 23 24 25 26 26 28 30 31 31 32 32 33 33 33 34 34
19 18 18 18 17 17 16 16 16 16 16 16 17 17 18 18 18 19 19 20 21 22 22 22 22 23 25 25 25 25 24 24 24 24 25 25 24 23 22 21 21 21 20 20 20 19 19 17 17 16 16 16 16 17 17 17 17 17 17 18 19 19 20 21 22 22 22 23 24 24 25 25 26 26 26 27 28 29 29 30 31 31 32 33 33 34
18 18 18 18 17 17 16 16 16 16 17 17 17 18 18 19 19 19 19 19 20 20 21 21 22 22 23 24 25 26 26 25 25 25 25 25 25 24 23 22 21 21 21 21 21 21 20 19 18 17 17 16 16 17 17 17 17 17 17 18 19 19 20 21 22 23 23 23 24 25 25 25 26 26 26 26 27 27 27 27 28 30 31 31 31 32
18 18 17 17 17 17 16 17 17 17 17 17 18 19 19 19 18 18 18 19 19 20 20 21 22 22 22 23 24 24 25 25 26 26 25 25 25 24 23 22 22 22 22 22 22 22 21 21 20 19 18 17 17 16 16 16 17 17 18 18 18 18 20 21 22 22 23 23 24 24 25 25 26 26 26 27 27 27 27 27 28 29 30 30 30 30
18 17 17 17 17 17 17 17 17 17 17 18 18 17 17 18 18 18 18 19 19 20 20 21 21 21 22 22 22 23 23 24 25 25 25 25 25 24 24 23 23 22 22 22 22 22 22 21 19 18 17 17 17 17 17 17 17 19 20 18 18 18 20 21 22 22 23 24 24 25 26 26 26 27 27 28 28 28 29 29 29 30 31 31 30 30
18 17 17 16 16 16 16 17 17 18 18 17 17 17 17 17 18 18 18 18 19 19 19 19 20 20 20 20 21 22 22 23 24 24 25 25 25 25 24 24 24 24 24 23 22 21 20 20 19 18 18 17 17 16 16 16 17 18 19 19 19 19 20 21 21 22 23 24 24 26 26 26 26 27 27 28 29 29 31 31 31 32 32 31 31 31
17 17 17 16 16 16 17 17 18 17 17 17 17 17 17 18 18 19 19 19 19 19 19 20 20 20 20 19 19 19 20 22 22 23 24 24 24 25 25 25 26 26 25 22 21 19 19 19 19 18 18 17 17 17 16 16 17 17 18 19 20 19 18 19 20 22 23 24 25 26 26 26 27 27 28 29 30 31 32 33 34 34 35 34 33 32
17 17 17 17 17 17 17 17 17 17 17 17 17 17 17 18 19 19 20 19 19 19 20 20 20 20 19 18 18 18 18 20 21 22 23 25 26 26 26 26 25 24 23 22 21 19 19 19 18 18 18 18 17 17 17 16 17 17 17 19 20 20 20 20 22 22 23 24 25 26 26 27 28 29 30 30 31 31 32 33 33 34 35 35 35 35
17 17 17 17 17 17 17 17 17 17 17 17 17 17 17 18 19 20 19 19 19 20 20 20 20 19 18 17 17 17 18 18 20 21 22 24 26 26 25 24 23 22 22 22 21 21 19 18 18 18 18 18 18 17 17 17 17 18 19 20 21 22 22 22 23 24 24 25 26 26 27 28 29 30 30 30 31 32 33 33 34 34 34 35 35 35
17 17 17 17 17 17 17 17 17 17 17 17 17 17 17 18 18 19 20 20 20 20 20 20 19 18 17 17 17 17 17 18 19 20 20 22 22 22 23 22 22 22 22 22 22 21 21 19 19 19 18 18 18 18 17 18 18 18 19 21 21 22 22 23 24 25 26 26 26 27 28 30 30 31 30 31 31 32 33 33 34 34 34 34 35 35
17 17 17 16 16 16 16 17 17 17 17 17 17 17 18 18 18 19 20 20 20 19 19 19 19 18 17 17 17 17 18 18 18 19 19 20 20 21 21 21 22 22 22 22 21 21 21 21 21 20 19 18 17 17 18 19 19 20 20 21 22 22 23 24 25 26 27 27 28 29 30 31 31 30 30 31 31 31 33 33 34 34 34 35 35 35
17 17 17 17 16 16 16 17 17 16 16 17 17 17 18 18 19 20 19 19 19 19 19 19 18 18 18 18 18 18 19 19 19 19 19 19 19 20 20 20 20 21 21 21 22 22 21 22 22 21 21 19 18 18 18 19 20 21 21 22 22 23 24 25 26 27 28 29 30 30 31 31 31 31 30 30 30 31 32 33 34 34 34 35 35 35
17 17 17 17 16 16 16 16 16 17 17 17 17 17 17 19 20 20 19 19 19 19 19 18 18 18 18 18 18 19 20 19 19 19 19 19 19 19 19 20 20 19 19 19 20 20 20 22 22 22 22 22 20 20 19 20 21 22 23 23 24 25 25 26 27 29 29 30 30 31 31 31 31 31 31 30 30 30 31 32 33 34 34 35 35 35
17 17 17 17 16 16 16 16 17 17 17 17 17 17 18 18 18 18 19 19 19 19 19 19 18 18 18 18 18 19 19 19 19 19 19 19 19 19 19 19 19 19 18 18 18 18 18 19 21 23 25 25 24 23 22 22 23 23 24 25 25 26 27 28 29 29 30 30 30 31 31 31 31 31 31 30 30 29 30 31 31 33 34 35 35 35
17 17 17 17 17 17 17 17 17 17 17 18 18 18 18 18 18 18 18 18 19 19 19 19 19 19 19 19 19 19 19 19 19 19 19 19 19 19 19 19 19 18 17 17 16 16 17 17 17 19 22 25 27 27 26 25 25 24 24 25 26 27 28 29 29 30 30 30 30 31 31 31 31 31 31 30 30 29 29 29 30 32 33 34 35 35